Cut Bank, MT

5:33 PM MST on December 10, 2019 (GMT -0700)
Cut Bank Municipal

Weather History for KCTB - August, 2019

Change the Weather History Date:

Saturday, August 31, 2019

  Actual Average Record
Temperature  
Mean Temperature 64 °F 59 °F  
Max Temperature 80 °F 74 °F 97 °F (1991)
Min Temperature 48 °F 45 °F 30 °F (1930)
Degree Days  
Heating Degree Days 1 6  
Month to date heating degree days 80 108  
Since 1 June heating degree days 395 427  
Since 1 July heating degree days 173 194  
Cooling Degree Days 0 1  
Month to date cooling degree days 51 64  
Year to date cooling degree days 104 153  
Since 1 June cooling degree days 104 151  
Growing Degree Days 14 (Base 50)    
Moisture  
Dew Point 49 °F    
Average Humidity 65    
Maximum Humidity 93    
Minimum Humidity 32    
Precipitation  
Precipitation 0.00 in 0.04 in 0.66 in (2008)
Month to date precipitation 1.42 1.19  
Year to date precipitation 8.83 8.66  
Snow  
Snow - - - ()
Snow Depth 0.00 in    
Sea Level Pressure  
Sea Level Pressure 30.03 in    
Wind  
Wind Speed 6 mph ()    
Max Wind Speed 25 mph    
Max Gust Speed 31 mph    
Visibility 10.0 miles    
Events      
T = Trace of Precipitation, MM = Missing Value Source: Averaged Metar Reports

Daily Weather History Graph

Daily Weather History Graph

Search for Another Location

Airport or City:

Astronomy

Aug. 31, 2019 Rise Set
Actual Time 6:45 AM MDT 8:13 PM MDT
Civil Twilight 6:12 AM MDT 8:46 PM MDT
Nautical Twilight 5:32 AM MDT 9:25 PM MDT
Astronomical Twilight 4:49 AM MDT 10:08 PM MDT
Moon 8:08 AM MDT (8/31) 9:22 PM MDT (8/31)
Length of Visible Light 14h 33m
Length of Day
13h 28m
Waxing Crescent, 3% of the Moon is Illuminated
Aug 31
Waxing Crescent
Sep 5
First Quarter
Sep 13
Full
Sep 21
Last Quarter
Sep 28
New

Hourly Weather History & Observations

Time (MDT) Temp. Dew Point Humidity Pressure Visibility Wind Dir Wind Speed Gust Speed Precip Events Conditions
12:56 AM 52.0 °F 50.0 °F 93% 30.07 in 10.0 mi West 4.6 mph - N/A   Partly Cloudy
1:56 AM 53.1 °F 50.0 °F 89% 30.06 in 10.0 mi NW 3.5 mph - N/A   Clear
2:56 AM 48.9 °F 46.9 °F 93% 30.07 in 10.0 mi WNW 6.9 mph - N/A   Clear
3:56 AM 50.0 °F 48.0 °F 93% 30.06 in 10.0 mi NNW 4.6 mph - N/A   Clear
4:56 AM 48.9 °F 46.0 °F 90% 30.06 in 10.0 mi WNW 9.2 mph - N/A   Clear
5:56 AM 48.9 °F 46.0 °F 90% 30.07 in 10.0 mi WNW 8.1 mph - N/A   Clear
6:56 AM 48.9 °F 46.0 °F 90% 30.08 in 10.0 mi NW 9.2 mph - N/A   Clear
7:56 AM 54.0 °F 50.0 °F 86% 30.09 in 10.0 mi North 3.5 mph - N/A   Clear
8:56 AM 55.9 °F 52.0 °F 87% 30.09 in 10.0 mi NNW 3.5 mph - N/A   Clear
9:56 AM 60.1 °F 51.1 °F 72% 30.07 in 10.0 mi North 3.5 mph - N/A   Clear
10:56 AM 63.0 °F 53.1 °F 70% 30.06 in 10.0 mi Calm Calm - N/A   Clear
11:56 AM 68.0 °F 50.0 °F 52% 30.04 in 10.0 mi SE 3.5 mph - N/A   Clear
12:56 PM 72.0 °F 48.9 °F 44% 30.02 in 10.0 mi Variable 4.6 mph - N/A   Clear
1:56 PM 73.9 °F 50.0 °F 43% 30.00 in 10.0 mi Variable 4.6 mph - N/A   Clear
2:56 PM 75.0 °F 50.0 °F 41% 29.99 in 10.0 mi Calm Calm - N/A   Clear
3:56 PM 78.1 °F 48.9 °F 36% 29.97 in 10.0 mi Variable 5.8 mph - N/A   Clear
4:56 PM 78.1 °F 48.0 °F 35% 29.96 in 10.0 mi WNW 8.1 mph - N/A   Clear
5:56 PM 79.0 °F 46.9 °F 32% 29.96 in 10.0 mi WNW 11.5 mph - N/A   Clear
6:56 PM 73.9 °F 46.9 °F 38% 29.97 in 10.0 mi NW 8.1 mph - N/A   Clear
7:56 PM 70.0 °F 48.9 °F 47% 29.97 in 10.0 mi NNW 8.1 mph - N/A   Clear
8:56 PM 66.0 °F 48.9 °F 54% 29.99 in 10.0 mi NNW 10.4 mph - N/A   Clear
9:56 PM 64.0 °F 48.0 °F 56% 30.00 in 10.0 mi North 11.5 mph - N/A   Clear
10:56 PM 63.0 °F 48.0 °F 58% 30.02 in 10.0 mi NNE 23.0 mph 31.1 mph N/A   Clear
11:56 PM 59.0 °F 48.9 °F 69% 30.03 in 10.0 mi NNE 18.4 mph - N/A   Clear